AirNav   Air Wisconsin Up To $57,000 Bonus
 
 1275 users online  

95GA McIntosh Field Airport
Whitesburg, Georgia, USA

GOING TO WHITESBURG?


FAA INFORMATION EFFECTIVE 22 APRIL 2021

Location

FAA Identifier: 95GA
Lat/Long: 33-27-21.4090N 084-56-34.7830W
33-27.356817N 084-56.579717W
33.4559469,-84.9429953
(estimated)
Elevation: 771 ft. / 235.0 m (surveyed)
Variation: 02W (1990)
From city: 3 miles SW of WHITESBURG, GA
Time zone: UTC -4 (UTC -5 during Standard Time)
Zip code: 30185

Airport Operations

Airport use: Private use. Permission required prior to landing
Activation date: 04/1993
Control tower: no
ARTCC: ATLANTA CENTER
FSS: MACON FLIGHT SERVICE STATION
Attendance: IREG
Wind indicator: yes
Segmented circle: no

Airport Communications

WX AWOS-3PT at CCO (12 nm SE): 118.975 (770-254-1617)
WX AWOS-3 at CTJ (15 nm NW): 118.175 (770-214-9667)
WX ASOS at FFC (19 nm E): 118.525 (770-487-1610)

Nearby radio navigation aids

VOR radial/distance  VOR name  Freq  Var
ATLr253/27.4ATLANTA VORTAC116.9005W
LGCr027/27.8LAGRANGE VORTAC115.6001E

 
NDB name  Hdg/Dist  Freq  Var  ID
CARROLLTON129/11.527804WGPQ --. .--. --.-
COWETA COUNTY319/16.623403WEQQ . --.- --.-
PECAT297/24.731605WFFC ..-. ..-. -.-.
PINE MOUNTAIN358/37.027203WPIM .--. .. --

Airport Services

Runway Information

Runway 4/22

Dimensions: 2480 x 50 ft. / 756 x 15 m
Surface: turf, in good condition
RUNWAY 4  RUNWAY 22
Traffic pattern: leftleft

Airport Ownership and Management from official FAA records

Ownership: Privately-owned
Owner: W. K. ZEIS, JR & D. M. GREENE
1656 N HIGHWAY 27
CARROLLTON, GA 30117-7506
Phone 770-834-4219
Manager: W. K. ZEIS, JR & D. M. GREENE
1656 N HIGHWAY 27
CARROLLTON, GA 30117-7506
Phone 770-834-4219

Additional Remarks

A52-04 04/22 TREES IN ALL QUADRANTS; HILLS ALONG EACH SIDE OF RY.
EXTENSIVE DEER ON AND INVOF ARPT.
POND WITH GEESE ADJACENT TO RW
REMOTE CONTROL AIRCRAFT PARK 1 MILE SW
FOR CD CTC ATLANTA APCH AT 678-364-6131.

Instrument Procedures

There are no published instrument procedures at 95GA.

Some nearby airports with instrument procedures:

KCCO - Newnan Coweta County Airport (12 nm SE)
KCTJ - West Georgia Regional Airport-O V Gray Field (15 nm NW)
KFFC - Atlanta Regional Airport-Falcon Field (19 nm E)
KPUJ - Paulding Northwest Atlanta Airport (27 nm N)
KLGC - LaGrange-Callaway Airport (28 nm S)
 
Loc | Ops | Rwys | IFR | FBO | Links
Com | Nav | Svcs | Stats | Notes
Area around 95GA (McIntosh Field Airport)
 
Road maps at: MapQuest Bing Google
 
Aerial photo
No photo
 
Sectional chart

 
Airport distance calculator
Flying to McIntosh Field Airport? Find the distance to fly.

From to 95GA

Sunrise and sunset
Times for 23-Apr-2021
 Local
(UTC-4)
 Zulu
(UTC)
Morning civil twilight06:3510:35
Sunrise07:0111:01
Sunset20:1500:15
Evening civil twilight20:4100:41

Current date and time
Zulu (UTC)  23-Apr-2021 14:00:20
Local (UTC-4)  23-Apr-2021 10:00:20
 
METAR
KCCO 
12nm SE 
231335Z AUTO 00000KT 10SM OVC100 12/02 A3021 RMK AO2 T01180019
KCTJ 
15nm NW 
231335Z AUTO 00000KT 10SM OVC100 08/04 A3024 RMK AO2 T00810035
KFFC 
20nm E 
231353Z AUTO 00000KT 9SM OVC100 11/05 A3022 RMK AO2 SLP235 T01110050 PWINO $
TAF
KATL 
27nm NE 
231132Z 2312/2418 12005KT P6SM BKN150 BKN250 FM231800 17007KT P6SM BKN120 FM240100 13006KT P6SM BKN100 FM240800 12008KT P6SM VCSH BKN035 OVC080 FM241100 10012KT 6SM -RA BKN012 OVC025 FM241500 09012G20KT 5SM -RA BKN006 OVC012
KFTY 
29nm NE 
231132Z 2312/2412 VRB03KT P6SM BKN250 FM231400 12005KT P6SM BKN120 FM231800 17006KT P6SM BKN120 FM240100 13005KT P6SM BKN100 FM240800 12006KT P6SM VCSH BKN035 OVC080 FM241100 10010KT 6SM -RA BKN012 OVC025
NOTAMs
Click for the latest NOTAMs
NOTAMs are issued by the DoD/FAA and will open in a separate window not controlled by AirNav.

 

 
 

Would you like to see your business listed on this page?

 If your business provides an interesting product or service to pilots, flight crews, aircraft, or users of the McIntosh Field Airport, you should consider listing it here.  To start the listing process, click on the button below
 
Add a business
 

Other Pages about McIntosh Field Airport

Update a link
 
Copyright © AirNav, LLC. All rights reserved. Privacy Policy  Contact